Weather in John Marshall Park

United States     34°12′36″N   117°18′10″W
temp.,
°C
wind,
m/s
gust,
m/s
humid.,
%
clouds,
%
prec.,
mm/h
press.,
hPa
HPBL,
m
23 may, mon
mon2323:00+11sse22715 0.0 101550
02:00+11s117033 0.0 101433
05:00+13e124645 0.0 101224
08:00+20n24245 0.0 1012451
11:00+26nw23174 0.0 10111264
14:00+28sw33155 0.0 10092010
17:00+24ssw432834 0.0 1009855
20:00+16s225698 0.0 101153
24 may, tue
tue2423:00+15se11525 0.0 101130
02:00+15ene223975 0.0 101025
05:00+15nne22335 0.0 101021
08:00+23n23203 0.0 1010365
11:00+29nnw331395 0.0 10091955
14:00+31sw4312100 0.0 10072614
17:00+28ssw54184 0.0 10071117
20:00+19sse22410 0.0 101048
25 may, wed
wed2523:00+17ese22400 0.0 101129
02:00+17ese22330 0.0 101021
05:00+18ene22280 0.0 101017
08:00+26ne01170 0.0 1010409
11:00+30ssw44130 0.0 10101847
14:00+31ssw55152 0.0 10091536
17:00+28s56221 0.0 1010935
20:00+19s33480 0.0 101286
26 may, thu
thu2623:00+16sse32570 0.0 101355
02:00+16se22550 0.0 101239
05:00+15se22510 0.0 101229
08:00+21s333725 0.0 1013284
11:00+25ssw442627 0.0 1013707
14:00+26ssw56240 0.0 1012903
17:00+25ssw67292 0.0 1012875
20:00+17sse344690 0.0 1014116
27 may, fri
fri2723:00+15sse335754 0.0 101590
02:00+13sse3266100 0.0 101562
05:00+12sse225773 0.0 101539
08:00+18s333615 0.0 1015305
11:00+23ssw4525100 0.0 1014704
14:00+24ssw562479 0.0 1013885
17:00+23ssw562799 0.0 1013863
20:00+17s344469 0.0 1014127